Voltar ao catálogo

DELTA 1 R/B

AtivoLEO
NORAD 6237·ROCKET BODY·🇺🇸 United States

Lançado Oct 15, 1972 de Vandenberg Space Force Base

Loading…

Próximas Passagens (próximas 24 horas)

TLE

AtualizadoSource: Space-Track

Época: Sep 14, 2026, 14:44 UTC

1 06237U 72082C   26257.61408236 -.00000053  00000-0  17724-4 0  9993
2 06237 102.8044 114.0555 0361665 228.0073 137.0893 13.18721875594236

Acompanhe DELTA 1 R/B em tempo real com AllMySat

Download on the App Store